Casa Grande, AZ

10:19 PM MST on November 21, 2019 (GMT -0700)
Casa Grande Municipal

Weather History for KCGZ - September, 2019

Change the Weather History Date:

Wednesday, September 11, 2019

  Actual Average Record
Temperature  
Mean Temperature 87 °F -  
Max Temperature 95 °F 97 °F 106 °F (2018)
Min Temperature 79 °F 71 °F 60 °F (2010)
Cooling Degree Days 22    
Growing Degree Days 37 (Base 50)    
Moisture  
Dew Point 61 °F    
Average Humidity 45    
Maximum Humidity 69    
Minimum Humidity 27    
Precipitation  
Precipitation 0.00 in - - ()
Sea Level Pressure  
Sea Level Pressure 29.89 in    
Wind  
Wind Speed 7 mph ()    
Max Wind Speed 15 mph    
Max Gust Speed 18 mph    
Visibility 10.0 miles    
Events      
Averages and records for this station are not official NWS values.
T = Trace of Precipitation, MM = Missing Value Source: Averaged Metar Reports

Daily Weather History Graph

Daily Weather History Graph

Search for Another Location

Airport or City:

Astronomy

Sep. 11, 2019 Rise Set
Actual Time 6:08 AM MST 6:38 PM MST
Civil Twilight 5:43 AM MST 7:03 PM MST
Nautical Twilight 5:13 AM MST 7:32 PM MST
Astronomical Twilight 4:44 AM MST 8:02 PM MST
Moon 5:43 PM MST (9/11) 3:45 AM MST (9/11)
Length of Visible Light 13h 20m
Length of Day
12h 30m
Waxing Gibbous, 95% of the Moon is Illuminated
Sep 11
Waxing Gibbous
Sep 13
Full
Sep 21
Last Quarter
Sep 28
New
Oct 5
First Quarter

Hourly Weather History & Observations

Time (MST) Temp. Heat Index Dew Point Humidity Pressure Visibility Wind Dir Wind Speed Gust Speed Precip Events Conditions
12:56 AM 82.0 °F 84.1 °F 66.0 °F 58% 29.86 in 10.0 mi South 8.1 mph - N/A   Clear
1:56 AM 81.0 °F 83.3 °F 66.9 °F 62% 29.86 in 10.0 mi SSW 9.2 mph - N/A   Scattered Clouds
2:56 AM 81.0 °F 83.8 °F 68.0 °F 65% 29.86 in 10.0 mi SSW 5.8 mph - N/A   Scattered Clouds
3:56 AM 81.0 °F 83.8 °F 68.0 °F 65% 29.87 in 10.0 mi South 6.9 mph - N/A   Mostly Cloudy
4:56 AM 79.0 °F - 68.0 °F 69% 29.89 in 10.0 mi SSW 9.2 mph - N/A   Partly Cloudy
5:56 AM 79.0 °F - 68.0 °F 69% 29.90 in 10.0 mi SSW 6.9 mph - N/A   Scattered Clouds
6:56 AM 79.0 °F - 68.0 °F 69% 29.93 in 10.0 mi WSW 4.6 mph - N/A   Scattered Clouds
7:56 AM 82.0 °F 84.9 °F 68.0 °F 62% 29.95 in 10.0 mi SSW 10.4 mph - N/A   Clear
8:56 AM 84.0 °F 85.8 °F 64.9 °F 53% 29.96 in 10.0 mi SW 11.5 mph - N/A   Clear
9:56 AM 86.0 °F 87.6 °F 64.9 °F 49% 29.96 in 10.0 mi SSW 12.7 mph 17.3 mph N/A   Scattered Clouds
10:56 AM 88.0 °F 89.3 °F 64.0 °F 45% 29.95 in 10.0 mi South 15.0 mph 18.4 mph N/A   Scattered Clouds
11:56 AM 90.0 °F 90.3 °F 62.1 °F 39% 29.93 in 10.0 mi SSW 15.0 mph 18.4 mph N/A   Partly Cloudy
12:56 PM 91.9 °F 91.5 °F 60.1 °F 34% 29.91 in 10.0 mi South 11.5 mph - N/A   Scattered Clouds
1:56 PM 95.0 °F 93.7 °F 57.0 °F 28% 29.88 in 10.0 mi SW 11.5 mph 16.1 mph N/A   Partly Cloudy
2:56 PM 93.9 °F 92.2 °F 55.9 °F 28% 29.85 in 10.0 mi SW 8.1 mph - N/A   Partly Cloudy
3:56 PM 95.0 °F 93.4 °F 55.9 °F 27% 29.84 in 10.0 mi West 6.9 mph - N/A   Clear
4:56 PM 93.9 °F 92.0 °F 55.0 °F 27% 29.83 in 10.0 mi Calm Calm - N/A   Clear
5:56 PM 93.0 °F 91.1 °F 55.0 °F 28% 29.83 in 10.0 mi WNW 5.8 mph - N/A   Clear
6:56 PM 91.0 °F 88.9 °F 55.0 °F 29% 29.83 in 9.0 mi West 5.8 mph - N/A   Clear
7:56 PM 88.0 °F 85.9 °F 54.0 °F 31% 29.86 in 10.0 mi NNW 5.8 mph - N/A   Clear
8:56 PM 87.1 °F 85.7 °F 55.9 °F 35% 29.87 in 10.0 mi NNW 6.9 mph - N/A   Clear
9:56 PM 84.9 °F 83.7 °F 55.9 °F 37% 29.89 in 10.0 mi NNW 6.9 mph - N/A   Clear
10:56 PM 84.0 °F 83.0 °F 55.9 °F 38% 29.91 in 10.0 mi NNW 8.1 mph - N/A   Clear
11:56 PM 84.9 °F 84.4 °F 59.0 °F 41% 29.92 in 10.0 mi WNW 11.5 mph - N/A   Clear